Flag for Canada Weather past 2 weeks in Wood Buffalo, Alberta, Canada

Now
59 °F

Cool.


Feels Like: 59 °F
Forecast: 56 / 75 °F
Wind: 3 mph from Southeast

Location: Fort McMurray CS

Current Time: Aug 27, 2014 at 3:25:03 AM

Latest Report: Aug 27, 2014 at 2:00 AM


Visibility: N/A

Pressure: 29.63 "Hg

Humidity: 89%

Dew point: 55 °F

Location of Wood BuffaloLocation

Historic Weather in Wood Buffalo — Graph

°F

Wood Buffalo temperature yesterday

Maximum temperature yesterday: 80 °F (at 2:00 PM)
Minimum temperature yesterday: 50 °F (at 7:00 AM)
Average temperature yesterday: 64 °F

Past Weeks' High & Low Weather Summary

 TemperatureHumidityPressure
High87 °F (Aug 13, 1:00 PM)100% (Aug 19, 7:00 AM)30.40 "Hg (Aug 19, 7:00 AM)
Low33 °F (Aug 22, 4:00 AM)22% (Aug 17, 2:00 PM)29.52 "Hg (Aug 18, 4:00 PM)
Average63 °F65%29.90 "Hg
* Reported Aug 12 2:00 AM — Aug 27 2:00 AM, Wood Buffalo, Weather by CustomWeather, © 2014

Note: Actual official high and low records may vary slightly from our data, if they occured in-between our weather recording intervals... More about our weather records

Advertising

Wood Buffalo weather history for previous 24 hours

 ConditionsComfort  
Time TempWeatherWind HumidityBarometerVisibility
2:00 AM
Aug 27
59 °FCool.3 mph89%29.63 "HgN/A
1:00 AM61 °FCool.5 mph87%29.64 "HgN/A
12:00 AM60 °FCool.5 mph90%29.65 "HgN/A
11:00 PM
Aug 26
61 °FCool.6 mph83%29.65 "HgN/A
10:00 PM62 °FCool.3 mph83%29.66 "HgN/A
9:00 PM65 °FMild.5 mph79%29.67 "HgN/A
8:00 PM68 °FMild.3 mph74%29.67 "HgN/A
7:00 PM68 °FMild.5 mph76%29.66 "HgN/A
6:00 PM77 °FWarm.8 mph42%29.66 "HgN/A
5:00 PM76 °FMild.10 mph39%29.68 "HgN/A
4:00 PM79 °FPleasantly warm.10 mph34%29.67 "HgN/A
3:00 PM78 °FPleasantly warm.8 mph32%29.68 "HgN/A
2:00 PM80 °FPleasantly warm.8 mph30%29.69 "HgN/A
1:00 PM75 °FMild.5 mph48%29.71 "HgN/A
12:00 PM70 °FMild.2 mph57%29.73 "HgN/A
11:00 AM68 °FMild.2 mph59%29.74 "HgN/A
10:00 AM62 °FCool.2 mph67%29.75 "HgN/A
9:00 AM57 °FCool.2 mph73%29.76 "HgN/A
8:00 AM51 °FCool.3 mph83%29.77 "HgN/A
7:00 AM50 °FCool.1 mph85%29.77 "HgN/A
6:00 AM51 °FCool.3 mph83%29.76 "HgN/A
5:00 AM51 °FCool.5 mph83%29.75 "HgN/A
4:00 AM53 °FCool.5 mph79%29.76 "HgN/A
3:00 AM54 °FCool.5 mph75%29.76 "HgN/A
Weather by CustomWeather, © 2014

See weather overviewHow to use our weather pages